Volver al catálogo

CZ-4C DEB

ActivoSSO
NORAD 43265·DEBRIS·🇨🇳 China

Lanzado Mar 31, 2018 desde Taiyuan Satellite Launch Center

Loading…

Próximos Pases (próximas 24 horas)

TLE

ActualizadoSource: Space-Track

Época: Sep 14, 2026, 04:29 UTC

1 43265U 18031G   26257.18749990  .00005925  00000-0  42240-3 0  9998
2 43265  97.7652 341.5554 0007678 329.6969  30.3812 15.04935442457827

Sigue CZ-4C DEB en tiempo real con AllMySat

Download on the App Store